Year,Month,Day,Hour,Minute,Value (Times are PST for temperature in C)
2018,10,16,00,00,6.60
2018,10,16,00,01,6.60
2018,10,16,00,02,6.60
2018,10,16,00,03,6.60
2018,10,16,00,04,6.60
2018,10,16,00,05,6.60
2018,10,16,00,06,6.50
2018,10,16,00,07,6.50
2018,10,16,00,08,6.50
2018,10,16,00,09,6.40
2018,10,16,00,10,6.40
2018,10,16,00,11,6.40
2018,10,16,00,12,6.40
2018,10,16,00,13,6.40
2018,10,16,00,14,6.40
2018,10,16,00,15,6.40
2018,10,16,00,16,6.40
2018,10,16,00,17,6.40
2018,10,16,00,18,6.40
2018,10,16,00,19,6.40
2018,10,16,00,20,6.40
2018,10,16,00,21,6.40
2018,10,16,00,22,6.40
2018,10,16,00,23,6.40
2018,10,16,00,24,6.40
2018,10,16,00,25,6.40
2018,10,16,00,26,6.40
2018,10,16,00,27,6.40
2018,10,16,00,28,6.40
2018,10,16,00,29,6.40
2018,10,16,00,30,6.30
2018,10,16,00,31,6.30
2018,10,16,00,32,6.30
2018,10,16,00,33,6.30
2018,10,16,00,34,6.20
2018,10,16,00,35,6.20
2018,10,16,00,36,6.20
2018,10,16,00,37,6.20
2018,10,16,00,38,6.20
2018,10,16,00,39,6.20
2018,10,16,00,40,6.10
2018,10,16,00,41,6.10
2018,10,16,00,42,6.00
2018,10,16,00,43,6.00
2018,10,16,00,44,5.90
2018,10,16,00,45,5.90
2018,10,16,00,46,5.90
2018,10,16,00,47,5.90
2018,10,16,00,48,5.80
2018,10,16,00,49,5.80
2018,10,16,00,50,5.80
2018,10,16,00,51,5.80
2018,10,16,00,52,5.80
2018,10,16,00,53,5.90
2018,10,16,00,54,5.90
2018,10,16,00,55,5.90
2018,10,16,00,56,5.90
2018,10,16,00,57,5.90
2018,10,16,00,58,5.90
2018,10,16,00,59,5.90
2018,10,16,01,00,5.90
2018,10,16,01,01,5.90
2018,10,16,01,02,5.90
2018,10,16,01,03,5.90
2018,10,16,01,04,6.00
2018,10,16,01,05,6.10
2018,10,16,01,06,6.10
2018,10,16,01,07,6.10
2018,10,16,01,08,6.20
2018,10,16,01,09,6.20
2018,10,16,01,10,6.20
2018,10,16,01,11,6.20
2018,10,16,01,12,6.30
2018,10,16,01,13,6.30
2018,10,16,01,14,6.40
2018,10,16,01,15,6.40
2018,10,16,01,16,6.40
2018,10,16,01,17,6.40
2018,10,16,01,18,6.40
2018,10,16,01,19,6.40
2018,10,16,01,20,6.40
2018,10,16,01,21,6.40
2018,10,16,01,22,6.40
2018,10,16,01,23,6.40
2018,10,16,01,24,6.40
2018,10,16,01,25,6.30
2018,10,16,01,26,6.30
2018,10,16,01,27,6.30
2018,10,16,01,28,6.20
2018,10,16,01,29,6.20
2018,10,16,01,30,6.10
2018,10,16,01,31,6.00
2018,10,16,01,32,6.00
2018,10,16,01,33,5.90
2018,10,16,01,34,5.90
2018,10,16,01,35,5.80
2018,10,16,01,36,5.90
2018,10,16,01,37,5.90
2018,10,16,01,38,5.90
2018,10,16,01,39,5.90
2018,10,16,01,40,5.90
2018,10,16,01,41,5.90
2018,10,16,01,42,5.90
2018,10,16,01,43,5.90
2018,10,16,01,44,5.90
2018,10,16,01,45,5.90
2018,10,16,01,46,5.90
2018,10,16,01,47,5.90
2018,10,16,01,48,5.90
2018,10,16,01,49,5.90
2018,10,16,01,50,5.90
2018,10,16,01,51,5.90
2018,10,16,01,52,5.90
2018,10,16,01,53,5.90
2018,10,16,01,54,5.90
2018,10,16,01,55,5.90
2018,10,16,01,56,5.90
2018,10,16,01,57,5.90
2018,10,16,01,58,5.90
2018,10,16,01,59,5.90
2018,10,16,02,00,5.90
2018,10,16,02,01,5.90
2018,10,16,02,02,5.90
2018,10,16,02,03,5.90
2018,10,16,02,04,5.80
2018,10,16,02,05,5.80
2018,10,16,02,06,5.80
2018,10,16,02,07,5.80
2018,10,16,02,08,5.80
2018,10,16,02,09,5.80
2018,10,16,02,10,5.80
2018,10,16,02,11,5.70
2018,10,16,02,12,5.70
2018,10,16,02,13,5.70
2018,10,16,02,14,5.70
2018,10,16,02,15,5.70
2018,10,16,02,16,5.70
2018,10,16,02,17,5.70
2018,10,16,02,18,5.70
2018,10,16,02,19,5.70
2018,10,16,02,20,5.70
2018,10,16,02,21,5.70
2018,10,16,02,22,5.70
2018,10,16,02,23,5.70
2018,10,16,02,24,5.70
2018,10,16,02,25,5.70
2018,10,16,02,26,5.70
2018,10,16,02,27,5.70
2018,10,16,02,28,5.70
2018,10,16,02,29,5.70
2018,10,16,02,30,5.70
2018,10,16,02,31,5.80
2018,10,16,02,32,5.80
2018,10,16,02,33,5.80
2018,10,16,02,34,5.80
2018,10,16,02,35,5.90
2018,10,16,02,36,5.90
2018,10,16,02,37,5.90
2018,10,16,02,38,5.90
2018,10,16,02,39,6.00
2018,10,16,02,40,6.10
2018,10,16,02,41,6.10
2018,10,16,02,42,6.10
2018,10,16,02,43,6.10
2018,10,16,02,44,6.10
2018,10,16,02,45,6.10
2018,10,16,02,46,6.10
2018,10,16,02,47,6.10
2018,10,16,02,48,6.10
2018,10,16,02,49,6.10
2018,10,16,02,50,6.20
2018,10,16,02,51,6.20
2018,10,16,02,52,6.20
2018,10,16,02,53,6.30
2018,10,16,02,54,6.30
2018,10,16,02,55,6.30
2018,10,16,02,56,6.40
2018,10,16,02,57,6.40
2018,10,16,02,58,6.40
2018,10,16,02,59,6.40
2018,10,16,03,00,6.40
2018,10,16,03,01,6.40
2018,10,16,03,02,6.40
2018,10,16,03,03,6.50
2018,10,16,03,04,6.50
2018,10,16,03,05,6.50
2018,10,16,03,06,6.50
2018,10,16,03,07,6.40
2018,10,16,03,08,6.40
2018,10,16,03,09,6.50
2018,10,16,03,10,6.50
2018,10,16,03,11,6.60
2018,10,16,03,12,6.60
2018,10,16,03,13,6.60
2018,10,16,03,14,6.70
2018,10,16,03,15,6.70
2018,10,16,03,16,6.70
2018,10,16,03,17,6.70
2018,10,16,03,18,6.70
2018,10,16,03,19,6.70
2018,10,16,03,20,6.70
2018,10,16,03,21,6.70
2018,10,16,03,22,6.70
2018,10,16,03,23,6.70
2018,10,16,03,24,6.70
2018,10,16,03,25,6.70
2018,10,16,03,26,6.70
2018,10,16,03,27,6.70
2018,10,16,03,28,6.70
2018,10,16,03,29,6.70
2018,10,16,03,30,6.60
2018,10,16,03,31,6.60
2018,10,16,03,32,6.60
2018,10,16,03,33,6.60
2018,10,16,03,34,6.50
2018,10,16,03,35,6.50
2018,10,16,03,36,6.50
2018,10,16,03,37,6.50
2018,10,16,03,38,6.50
2018,10,16,03,39,6.50
2018,10,16,03,40,6.60
2018,10,16,03,41,6.60
2018,10,16,03,42,6.50
2018,10,16,03,43,6.50
2018,10,16,03,44,6.40
2018,10,16,03,45,6.40
2018,10,16,03,46,6.40
2018,10,16,03,47,6.40
2018,10,16,03,48,6.40
2018,10,16,03,49,6.50
2018,10,16,03,50,6.60
2018,10,16,03,51,6.60
2018,10,16,03,52,6.70
2018,10,16,03,53,6.80
2018,10,16,03,54,6.80
2018,10,16,03,55,6.90
2018,10,16,03,56,7.00
2018,10,16,03,57,7.10
2018,10,16,03,58,7.10
2018,10,16,03,59,7.20
2018,10,16,04,00,7.20
2018,10,16,04,01,7.20
2018,10,16,04,02,7.30
2018,10,16,04,03,7.30
2018,10,16,04,04,7.30
2018,10,16,04,05,7.30
2018,10,16,04,06,7.30
2018,10,16,04,07,7.40
2018,10,16,04,08,7.40
2018,10,16,04,09,7.50
2018,10,16,04,10,7.50
2018,10,16,04,11,7.60
2018,10,16,04,12,7.60
2018,10,16,04,13,7.60
2018,10,16,04,14,7.60
2018,10,16,04,15,7.60
2018,10,16,04,16,7.60
2018,10,16,04,17,7.60
2018,10,16,04,18,7.60
2018,10,16,04,19,7.60
2018,10,16,04,20,7.60
2018,10,16,04,21,7.60
2018,10,16,04,22,7.50
2018,10,16,04,23,7.50
2018,10,16,04,24,7.40
2018,10,16,04,25,7.40
2018,10,16,04,26,7.40
2018,10,16,04,27,7.30
2018,10,16,04,28,7.30
2018,10,16,04,29,7.20
2018,10,16,04,30,7.20
2018,10,16,04,31,7.10
2018,10,16,04,32,7.00
2018,10,16,04,33,6.90
2018,10,16,04,34,6.90
2018,10,16,04,35,6.90
2018,10,16,04,36,6.90
2018,10,16,04,37,6.90
2018,10,16,04,38,6.90
2018,10,16,04,39,7.00
2018,10,16,04,40,7.10
2018,10,16,04,41,7.10
2018,10,16,04,42,7.20
2018,10,16,04,43,7.20
2018,10,16,04,44,7.20
2018,10,16,04,45,7.20
2018,10,16,04,46,7.20
2018,10,16,04,47,7.20
2018,10,16,04,48,7.10
2018,10,16,04,49,7.10
2018,10,16,04,50,7.10
2018,10,16,04,51,7.10
2018,10,16,04,52,7.10
2018,10,16,04,53,7.20
2018,10,16,04,54,7.20
2018,10,16,04,55,7.20
2018,10,16,04,56,7.20
2018,10,16,04,57,7.20
2018,10,16,04,58,7.20
2018,10,16,04,59,7.10
2018,10,16,05,00,7.10
2018,10,16,05,01,7.10
2018,10,16,05,02,7.10
2018,10,16,05,03,7.10
2018,10,16,05,04,7.20
2018,10,16,05,05,7.30
2018,10,16,05,06,7.30
2018,10,16,05,07,7.40
2018,10,16,05,08,7.40
2018,10,16,05,09,7.40
2018,10,16,05,10,7.40
2018,10,16,05,11,7.50
2018,10,16,05,12,7.50
2018,10,16,05,13,7.40
2018,10,16,05,14,7.40
2018,10,16,05,15,7.40
2018,10,16,05,16,7.40
2018,10,16,05,17,7.30
2018,10,16,05,18,7.30
2018,10,16,05,19,7.30
2018,10,16,05,20,7.30
2018,10,16,05,21,7.30
2018,10,16,05,22,7.20
2018,10,16,05,23,7.20
2018,10,16,05,24,7.20
2018,10,16,05,25,7.20
2018,10,16,05,26,7.20
2018,10,16,05,27,7.20
2018,10,16,05,28,7.20
2018,10,16,05,29,7.10
2018,10,16,05,30,7.10
2018,10,16,05,31,7.10
2018,10,16,05,32,7.10
2018,10,16,05,33,7.10
2018,10,16,05,34,7.10
2018,10,16,05,35,7.10
2018,10,16,05,36,7.10
2018,10,16,05,37,7.10
2018,10,16,05,38,7.10
2018,10,16,05,39,7.10
2018,10,16,05,40,7.00
2018,10,16,05,41,7.00
2018,10,16,05,42,7.00
2018,10,16,05,43,7.00
2018,10,16,05,44,6.90
2018,10,16,05,45,6.90
2018,10,16,05,46,6.90
2018,10,16,05,47,6.90
2018,10,16,05,48,6.90
2018,10,16,05,49,6.90
2018,10,16,05,50,6.90
2018,10,16,05,51,6.90
2018,10,16,05,52,6.90
2018,10,16,05,53,6.90
2018,10,16,05,54,6.90
2018,10,16,05,55,6.80
2018,10,16,05,56,6.80
2018,10,16,05,57,6.80
2018,10,16,05,58,6.80
2018,10,16,05,59,6.80
2018,10,16,06,00,6.80
2018,10,16,06,01,6.90
2018,10,16,06,02,6.90
2018,10,16,06,03,6.90
2018,10,16,06,04,7.00
2018,10,16,06,05,7.00
2018,10,16,06,06,7.10
2018,10,16,06,07,7.10
2018,10,16,06,08,7.10
2018,10,16,06,09,7.10
2018,10,16,06,10,7.10
2018,10,16,06,11,7.20
2018,10,16,06,12,7.20
2018,10,16,06,13,7.20
2018,10,16,06,14,7.20
2018,10,16,06,15,7.20
2018,10,16,06,16,7.20
2018,10,16,06,17,7.20
2018,10,16,06,18,7.20
2018,10,16,06,19,7.20
2018,10,16,06,20,7.20
2018,10,16,06,21,7.20
2018,10,16,06,22,7.20
2018,10,16,06,23,7.20
2018,10,16,06,24,7.20
2018,10,16,06,25,7.20
2018,10,16,06,26,7.20
2018,10,16,06,27,7.20
2018,10,16,06,28,7.20
2018,10,16,06,29,7.20
2018,10,16,06,30,7.20
2018,10,16,06,31,7.30
2018,10,16,06,32,7.30
2018,10,16,06,33,7.30
2018,10,16,06,34,7.30
2018,10,16,06,35,7.30
2018,10,16,06,36,7.30
2018,10,16,06,37,7.30
2018,10,16,06,38,7.20
2018,10,16,06,39,7.10
2018,10,16,06,40,7.10
2018,10,16,06,41,7.10
2018,10,16,06,42,7.10
2018,10,16,06,43,7.10
2018,10,16,06,44,7.10
2018,10,16,06,45,7.10
2018,10,16,06,46,7.20
2018,10,16,06,47,7.20
2018,10,16,06,48,7.20
2018,10,16,06,49,7.20
2018,10,16,06,50,7.30
2018,10,16,06,51,7.30
2018,10,16,06,52,7.30
2018,10,16,06,53,7.30
2018,10,16,06,54,7.30
2018,10,16,06,55,7.30
2018,10,16,06,56,7.30
2018,10,16,06,57,7.40
2018,10,16,06,58,7.40
2018,10,16,06,59,7.50
2018,10,16,07,00,7.60
2018,10,16,07,01,7.60
2018,10,16,07,02,7.60
2018,10,16,07,03,7.70
2018,10,16,07,04,7.70
2018,10,16,07,05,7.80
2018,10,16,07,06,7.90
2018,10,16,07,07,8.00
2018,10,16,07,08,8.10
2018,10,16,07,09,8.10
2018,10,16,07,10,8.10
2018,10,16,07,11,8.10
2018,10,16,07,12,8.10
2018,10,16,07,13,8.10
2018,10,16,07,14,8.10
2018,10,16,07,15,8.10
2018,10,16,07,16,8.00
2018,10,16,07,17,8.00
2018,10,16,07,18,8.00
2018,10,16,07,19,7.90
2018,10,16,07,20,7.90
2018,10,16,07,21,7.90
2018,10,16,07,22,7.90
2018,10,16,07,23,7.80
2018,10,16,07,24,7.80
2018,10,16,07,25,7.80
2018,10,16,07,26,7.80
2018,10,16,07,27,7.80
2018,10,16,07,28,7.80
2018,10,16,07,29,7.70
2018,10,16,07,30,7.70
2018,10,16,07,31,7.70
2018,10,16,07,32,7.60
2018,10,16,07,33,7.60
2018,10,16,07,34,7.60
2018,10,16,07,35,7.50
2018,10,16,07,36,7.50
2018,10,16,07,37,7.40
2018,10,16,07,38,7.40
2018,10,16,07,39,7.40
2018,10,16,07,40,7.40
2018,10,16,07,41,7.30
2018,10,16,07,42,7.30
2018,10,16,07,43,7.30
2018,10,16,07,44,7.30
2018,10,16,07,45,7.30
2018,10,16,07,46,7.40
2018,10,16,07,47,7.40
2018,10,16,07,48,7.40
2018,10,16,07,49,7.40
2018,10,16,07,50,7.40
2018,10,16,07,51,7.50
2018,10,16,07,52,7.60
2018,10,16,07,53,7.60
2018,10,16,07,54,7.50
2018,10,16,07,55,7.50
2018,10,16,07,56,7.60
2018,10,16,07,57,7.60
2018,10,16,07,58,7.60
2018,10,16,07,59,7.70
2018,10,16,08,00,7.90
2018,10,16,08,01,8.10
2018,10,16,08,02,8.10
2018,10,16,08,03,8.20
2018,10,16,08,04,8.30
2018,10,16,08,05,8.50
2018,10,16,08,06,8.60
2018,10,16,08,07,8.70
2018,10,16,08,08,8.80
2018,10,16,08,09,9.00
2018,10,16,08,10,9.10
2018,10,16,08,11,9.20
2018,10,16,08,12,9.30
2018,10,16,08,13,9.50
2018,10,16,08,14,9.60
2018,10,16,08,15,9.70
2018,10,16,08,16,9.80
2018,10,16,08,17,9.80
2018,10,16,08,18,9.90
2018,10,16,08,19,9.90
2018,10,16,08,20,10.00
2018,10,16,08,21,10.00
2018,10,16,08,22,10.10
2018,10,16,08,23,10.10
2018,10,16,08,24,10.20
2018,10,16,08,25,10.30
2018,10,16,08,26,10.30
2018,10,16,08,27,10.30
2018,10,16,08,28,10.40
2018,10,16,08,29,10.40
2018,10,16,08,30,10.50
2018,10,16,08,31,10.60
2018,10,16,08,32,10.60
2018,10,16,08,33,10.70
2018,10,16,08,34,10.70
2018,10,16,08,35,10.70
2018,10,16,08,36,10.70
2018,10,16,08,37,10.80
2018,10,16,08,38,10.80
2018,10,16,08,39,10.80
2018,10,16,08,40,10.90
2018,10,16,08,41,10.90
2018,10,16,08,42,11.00
2018,10,16,08,43,11.00
2018,10,16,08,44,11.00
2018,10,16,08,45,11.10
2018,10,16,08,46,11.10
2018,10,16,08,47,11.10
2018,10,16,08,48,11.10
2018,10,16,08,49,11.10
2018,10,16,08,50,11.00
2018,10,16,08,51,11.10
2018,10,16,08,52,11.10
2018,10,16,08,53,11.10
2018,10,16,08,54,11.10
2018,10,16,08,55,11.20
2018,10,16,08,56,11.30
2018,10,16,08,57,11.30
2018,10,16,08,58,11.40
2018,10,16,08,59,11.50
2018,10,16,09,00,11.60
2018,10,16,09,01,11.70
2018,10,16,09,02,11.70
2018,10,16,09,03,11.80
2018,10,16,09,04,11.80
2018,10,16,09,05,11.90
2018,10,16,09,06,11.90
2018,10,16,09,07,12.00
2018,10,16,09,08,12.10
2018,10,16,09,09,12.10
2018,10,16,09,10,12.20
2018,10,16,09,11,12.20
2018,10,16,09,12,12.20
2018,10,16,09,13,12.30
2018,10,16,09,14,12.30
2018,10,16,09,15,12.30
2018,10,16,09,16,12.40
2018,10,16,09,17,12.40
2018,10,16,09,18,12.40
2018,10,16,09,19,12.50
2018,10,16,09,20,12.50
2018,10,16,09,21,12.50
2018,10,16,09,22,12.60
2018,10,16,09,23,12.60
2018,10,16,09,24,12.60
2018,10,16,09,25,12.70
2018,10,16,09,26,12.70
2018,10,16,09,27,12.80
2018,10,16,09,28,12.80
2018,10,16,09,29,12.80
2018,10,16,09,30,12.90
2018,10,16,09,31,12.90
2018,10,16,09,32,13.00
2018,10,16,09,33,13.00
2018,10,16,09,34,13.00
2018,10,16,09,35,13.00
2018,10,16,09,36,13.10
2018,10,16,09,37,13.10
2018,10,16,09,38,13.10
2018,10,16,09,39,13.10
2018,10,16,09,40,13.20
2018,10,16,09,41,13.20
2018,10,16,09,42,13.20
2018,10,16,09,43,13.20
2018,10,16,09,44,13.20
2018,10,16,09,45,13.20
2018,10,16,09,46,13.30
2018,10,16,09,47,13.30
2018,10,16,09,48,13.30
2018,10,16,09,49,13.30
2018,10,16,09,50,13.30
2018,10,16,09,51,13.30
2018,10,16,09,52,13.40
2018,10,16,09,53,13.40
2018,10,16,09,54,13.40
2018,10,16,09,55,13.50
2018,10,16,09,56,13.50
2018,10,16,09,57,13.60
2018,10,16,09,58,13.60
2018,10,16,09,59,13.70
2018,10,16,10,00,13.70
2018,10,16,10,01,13.80
2018,10,16,10,02,13.80
2018,10,16,10,03,13.80
2018,10,16,10,04,13.80
2018,10,16,10,05,13.80
2018,10,16,10,06,13.90
2018,10,16,10,07,13.90
2018,10,16,10,08,13.90
2018,10,16,10,09,13.90
2018,10,16,10,10,13.90
2018,10,16,10,11,13.90
2018,10,16,10,12,13.90
2018,10,16,10,13,14.00
2018,10,16,10,14,14.00
2018,10,16,10,15,14.00
2018,10,16,10,16,14.00
2018,10,16,10,17,14.00
2018,10,16,10,18,14.00
2018,10,16,10,19,14.00
2018,10,16,10,20,14.00
2018,10,16,10,21,14.00
2018,10,16,10,22,14.10
2018,10,16,10,23,14.10
2018,10,16,10,24,14.10
2018,10,16,10,25,14.10
2018,10,16,10,26,14.10
2018,10,16,10,27,14.20
2018,10,16,10,28,14.20
2018,10,16,10,29,14.20
2018,10,16,10,30,14.20
2018,10,16,10,31,14.30
2018,10,16,10,32,14.30
2018,10,16,10,33,14.40
2018,10,16,10,34,14.40
2018,10,16,10,35,14.40
2018,10,16,10,36,14.40
2018,10,16,10,37,14.50
2018,10,16,10,38,14.50
2018,10,16,10,39,14.60
2018,10,16,10,40,14.60
2018,10,16,10,41,14.70
2018,10,16,10,42,14.70
2018,10,16,10,43,14.70
2018,10,16,10,44,14.80
2018,10,16,10,45,14.80
2018,10,16,10,46,14.90
2018,10,16,10,47,14.90
2018,10,16,10,48,14.90
2018,10,16,10,49,14.90
2018,10,16,10,50,15.00
2018,10,16,10,51,15.00
2018,10,16,10,52,15.00
2018,10,16,10,53,15.00
2018,10,16,10,54,15.00
2018,10,16,10,55,15.10
2018,10,16,10,56,15.10
2018,10,16,10,57,15.20
2018,10,16,10,58,15.20
2018,10,16,10,59,15.20
2018,10,16,11,00,15.30
2018,10,16,11,01,15.30
2018,10,16,11,02,15.40
2018,10,16,11,03,15.40
2018,10,16,11,04,15.40
2018,10,16,11,05,15.40
2018,10,16,11,06,15.40
2018,10,16,11,07,15.40
2018,10,16,11,08,15.40
2018,10,16,11,09,15.40
2018,10,16,11,10,15.40
2018,10,16,11,11,15.50
2018,10,16,11,12,15.50
2018,10,16,11,13,15.50
2018,10,16,11,14,15.50
2018,10,16,11,15,15.50
2018,10,16,11,16,15.50
2018,10,16,11,17,15.50
2018,10,16,11,18,15.50
2018,10,16,11,19,15.50
2018,10,16,11,20,15.60
2018,10,16,11,21,15.60
2018,10,16,11,22,15.60
2018,10,16,11,23,15.60
2018,10,16,11,24,15.70
2018,10,16,11,25,15.70
2018,10,16,11,26,15.70
2018,10,16,11,27,15.70
2018,10,16,11,28,15.80
2018,10,16,11,29,15.80
2018,10,16,11,30,15.80
2018,10,16,11,31,15.90
2018,10,16,11,32,15.90
2018,10,16,11,33,16.00
2018,10,16,11,34,16.00
2018,10,16,11,35,16.10
2018,10,16,11,36,16.10
2018,10,16,11,37,16.10
2018,10,16,11,38,16.10
2018,10,16,11,39,16.10
2018,10,16,11,40,16.10
2018,10,16,11,41,16.20
2018,10,16,11,42,16.20
2018,10,16,11,43,16.30
2018,10,16,11,44,16.30
2018,10,16,11,45,16.30
2018,10,16,11,46,16.30
2018,10,16,11,47,16.30
2018,10,16,11,48,16.30
2018,10,16,11,49,16.30
2018,10,16,11,50,16.40
2018,10,16,11,51,16.40
2018,10,16,11,52,16.40
2018,10,16,11,53,16.40
2018,10,16,11,54,16.50
2018,10,16,11,55,16.50
2018,10,16,11,56,16.60
2018,10,16,11,57,16.60
2018,10,16,11,58,16.80
2018,10,16,11,59,16.80
2018,10,16,12,00,16.80
2018,10,16,12,01,16.80
2018,10,16,12,02,16.80
2018,10,16,12,03,16.80
2018,10,16,12,04,16.80
2018,10,16,12,05,16.80
2018,10,16,12,06,16.80
2018,10,16,12,07,16.80
2018,10,16,12,08,16.80
2018,10,16,12,09,16.90
2018,10,16,12,10,16.90
2018,10,16,12,11,17.00
2018,10,16,12,12,17.00
2018,10,16,12,13,17.00
2018,10,16,12,14,16.90
2018,10,16,12,15,16.80
2018,10,16,12,16,16.80
2018,10,16,12,17,16.80
2018,10,16,12,18,16.70
2018,10,16,12,19,16.70
2018,10,16,12,20,16.70
2018,10,16,12,21,16.70
2018,10,16,12,22,16.70
2018,10,16,12,23,16.70
2018,10,16,12,24,16.70
2018,10,16,12,25,16.70
2018,10,16,12,26,16.80
2018,10,16,12,27,16.80
2018,10,16,12,28,16.80
2018,10,16,12,29,16.80
2018,10,16,12,30,16.80
2018,10,16,12,31,16.90
2018,10,16,12,32,16.90
2018,10,16,12,33,17.00
2018,10,16,12,34,17.00
2018,10,16,12,35,17.00
2018,10,16,12,36,16.90
2018,10,16,12,37,16.90
2018,10,16,12,38,16.90
2018,10,16,12,39,16.90
2018,10,16,12,40,16.90
2018,10,16,12,41,16.90
2018,10,16,12,42,16.80
2018,10,16,12,43,16.80
2018,10,16,12,44,16.70
2018,10,16,12,45,16.60
2018,10,16,12,46,16.60
2018,10,16,12,47,16.60
2018,10,16,12,48,16.60
2018,10,16,12,49,16.60
2018,10,16,12,50,16.70
2018,10,16,12,51,16.80
2018,10,16,12,52,16.80
2018,10,16,12,53,16.80
2018,10,16,12,54,16.80
2018,10,16,12,55,16.90
2018,10,16,12,56,16.90
2018,10,16,12,57,17.00
2018,10,16,12,58,17.10
2018,10,16,12,59,17.10
2018,10,16,13,00,17.20
2018,10,16,13,01,17.20
2018,10,16,13,02,17.30
2018,10,16,13,03,17.30
2018,10,16,13,04,17.30
2018,10,16,13,05,17.30
2018,10,16,13,06,17.30
2018,10,16,13,07,17.30
2018,10,16,13,08,17.40
2018,10,16,13,09,17.40
2018,10,16,13,10,17.50
2018,10,16,13,11,17.60
2018,10,16,13,12,17.60
2018,10,16,13,13,17.70
2018,10,16,13,14,17.70
2018,10,16,13,15,17.70
2018,10,16,13,16,17.70
2018,10,16,13,17,17.70
2018,10,16,13,18,17.70
2018,10,16,13,19,17.70
2018,10,16,13,20,17.70
2018,10,16,13,21,17.70
2018,10,16,13,22,17.60
2018,10,16,13,23,17.70
2018,10,16,13,24,17.70
2018,10,16,13,25,17.70
2018,10,16,13,26,17.70
2018,10,16,13,27,17.70
2018,10,16,13,28,17.70
2018,10,16,13,29,17.60
2018,10,16,13,30,17.60
2018,10,16,13,31,17.60
2018,10,16,13,32,17.60
2018,10,16,13,33,17.60
2018,10,16,13,34,17.60
2018,10,16,13,35,17.60
2018,10,16,13,36,17.70
2018,10,16,13,37,17.70
2018,10,16,13,38,17.70
2018,10,16,13,39,17.70
2018,10,16,13,40,17.70
2018,10,16,13,41,17.70
2018,10,16,13,42,17.70
2018,10,16,13,43,17.70
2018,10,16,13,44,17.80
2018,10,16,13,45,17.80
2018,10,16,13,46,17.70
2018,10,16,13,47,17.60
2018,10,16,13,48,17.60
2018,10,16,13,49,17.60
2018,10,16,13,50,17.60
2018,10,16,13,51,17.60
2018,10,16,13,52,17.60
2018,10,16,13,53,17.60
2018,10,16,13,54,17.60
2018,10,16,13,55,17.50
2018,10,16,13,56,17.50
2018,10,16,13,57,17.50
2018,10,16,13,58,17.60
2018,10,16,13,59,17.60
2018,10,16,14,00,17.70
2018,10,16,14,01,17.70
2018,10,16,14,02,17.70
2018,10,16,14,03,17.70
2018,10,16,14,04,17.60
2018,10,16,14,05,17.60
2018,10,16,14,06,17.60
2018,10,16,14,07,17.60
2018,10,16,14,08,17.60
2018,10,16,14,09,17.60
2018,10,16,14,10,17.60
2018,10,16,14,11,17.60
2018,10,16,14,12,17.60
2018,10,16,14,13,17.70
2018,10,16,14,14,17.70
2018,10,16,14,15,17.80
2018,10,16,14,16,17.80
2018,10,16,14,17,17.90
2018,10,16,14,18,17.90
2018,10,16,14,19,17.90
2018,10,16,14,20,17.90
2018,10,16,14,21,17.80
2018,10,16,14,22,17.80
2018,10,16,14,23,17.90
2018,10,16,14,24,17.90
2018,10,16,14,25,17.90
2018,10,16,14,26,17.90
2018,10,16,14,27,17.90
2018,10,16,14,28,17.90
2018,10,16,14,29,17.90
2018,10,16,14,30,17.90
2018,10,16,14,31,17.90
2018,10,16,14,32,17.90
2018,10,16,14,33,17.90
2018,10,16,14,34,17.90
2018,10,16,14,35,17.90
2018,10,16,14,36,17.80
2018,10,16,14,37,17.90
2018,10,16,14,38,17.90
2018,10,16,14,39,17.80
2018,10,16,14,40,17.80
2018,10,16,14,41,17.80
2018,10,16,14,42,17.90
2018,10,16,14,43,17.90
2018,10,16,14,44,17.90
2018,10,16,14,45,17.90
2018,10,16,14,46,17.90
2018,10,16,14,47,17.90
2018,10,16,14,48,17.90
2018,10,16,14,49,17.90
2018,10,16,14,50,17.90
2018,10,16,14,51,17.90
2018,10,16,14,52,18.00
2018,10,16,14,53,18.00
2018,10,16,14,54,18.00
2018,10,16,14,55,18.00
2018,10,16,14,56,18.00
2018,10,16,14,57,18.00
2018,10,16,14,58,17.90
2018,10,16,14,59,17.90
2018,10,16,15,00,17.90
2018,10,16,15,01,17.90
2018,10,16,15,02,17.90
2018,10,16,15,03,17.90
2018,10,16,15,04,17.80
2018,10,16,15,05,17.80
2018,10,16,15,06,17.80
2018,10,16,15,07,17.80
2018,10,16,15,08,17.80
2018,10,16,15,09,17.80
2018,10,16,15,10,17.90
2018,10,16,15,11,17.90
2018,10,16,15,12,18.00
2018,10,16,15,13,18.00
2018,10,16,15,14,18.10
2018,10,16,15,15,18.10
2018,10,16,15,16,18.20
2018,10,16,15,17,18.20
2018,10,16,15,18,18.20
2018,10,16,15,19,18.20
2018,10,16,15,20,18.20
2018,10,16,15,21,18.20
2018,10,16,15,22,18.20
2018,10,16,15,23,18.20
2018,10,16,15,24,18.20
2018,10,16,15,25,18.20
2018,10,16,15,26,18.10
2018,10,16,15,27,18.10
2018,10,16,15,28,18.10
2018,10,16,15,29,18.10
2018,10,16,15,30,18.00
2018,10,16,15,31,18.00
2018,10,16,15,32,18.10
2018,10,16,15,33,18.10
2018,10,16,15,34,18.20
2018,10,16,15,35,18.20
2018,10,16,15,36,18.20
2018,10,16,15,37,18.20
2018,10,16,15,38,18.20
2018,10,16,15,39,18.30
2018,10,16,15,40,18.30
2018,10,16,15,41,18.30
2018,10,16,15,42,18.30
2018,10,16,15,43,18.30
2018,10,16,15,44,18.30
2018,10,16,15,45,18.30
2018,10,16,15,46,18.40
2018,10,16,15,47,18.40
2018,10,16,15,48,18.30
2018,10,16,15,49,18.30
2018,10,16,15,50,18.30
2018,10,16,15,51,18.30
2018,10,16,15,52,18.30
2018,10,16,15,53,18.30
2018,10,16,15,54,18.20
2018,10,16,15,55,18.20
2018,10,16,15,56,18.10
2018,10,16,15,57,18.10
2018,10,16,15,58,18.10
2018,10,16,15,59,18.10
2018,10,16,16,00,18.10
2018,10,16,16,01,18.10
2018,10,16,16,02,18.10
2018,10,16,16,03,18.00
2018,10,16,16,04,18.00
2018,10,16,16,05,18.00
2018,10,16,16,06,17.90
2018,10,16,16,07,17.90
2018,10,16,16,08,17.90
2018,10,16,16,09,18.00
2018,10,16,16,10,18.00
2018,10,16,16,11,18.00
2018,10,16,16,12,18.10
2018,10,16,16,13,18.10
2018,10,16,16,14,18.00
2018,10,16,16,15,18.10
2018,10,16,16,16,18.10
2018,10,16,16,17,18.10
2018,10,16,16,18,18.10
2018,10,16,16,19,18.10
2018,10,16,16,20,18.00
2018,10,16,16,21,18.00
2018,10,16,16,22,17.90
2018,10,16,16,23,17.90
2018,10,16,16,24,17.80
2018,10,16,16,25,17.80
2018,10,16,16,26,17.80
2018,10,16,16,27,17.70
2018,10,16,16,28,17.70
2018,10,16,16,29,17.70
2018,10,16,16,30,17.70
2018,10,16,16,31,17.70
2018,10,16,16,32,17.70
2018,10,16,16,33,17.70
2018,10,16,16,34,17.70
2018,10,16,16,35,17.70
2018,10,16,16,36,17.70
2018,10,16,16,37,17.70
2018,10,16,16,38,17.70
2018,10,16,16,39,17.70
2018,10,16,16,40,17.70
2018,10,16,16,41,17.70
2018,10,16,16,42,17.70
2018,10,16,16,43,17.70
2018,10,16,16,44,17.70
2018,10,16,16,45,17.70
2018,10,16,16,46,17.70
2018,10,16,16,47,17.70
2018,10,16,16,48,17.70
2018,10,16,16,49,17.70
2018,10,16,16,50,17.60
2018,10,16,16,51,17.60
2018,10,16,16,52,17.70
2018,10,16,16,53,17.70
2018,10,16,16,54,17.70
2018,10,16,16,55,17.70
2018,10,16,16,56,17.70
2018,10,16,16,57,17.80
2018,10,16,16,58,17.80
2018,10,16,16,59,17.70
2018,10,16,17,00,17.70
2018,10,16,17,01,17.70
2018,10,16,17,02,17.70
2018,10,16,17,03,17.70
2018,10,16,17,04,17.60
2018,10,16,17,05,17.60
2018,10,16,17,06,17.60
2018,10,16,17,07,17.50
2018,10,16,17,08,17.50
2018,10,16,17,09,17.50
2018,10,16,17,10,17.60
2018,10,16,17,11,17.60
2018,10,16,17,12,17.60
2018,10,16,17,13,17.60
2018,10,16,17,14,17.60
2018,10,16,17,15,17.50
2018,10,16,17,16,17.50
2018,10,16,17,17,17.50
2018,10,16,17,18,17.40
2018,10,16,17,19,17.40
2018,10,16,17,20,17.30
2018,10,16,17,21,17.30
2018,10,16,17,22,17.20
2018,10,16,17,23,17.20
2018,10,16,17,24,17.10
2018,10,16,17,25,17.10
2018,10,16,17,26,17.20
2018,10,16,17,27,17.20
2018,10,16,17,28,17.20
2018,10,16,17,29,17.20
2018,10,16,17,30,17.10
2018,10,16,17,31,17.10
2018,10,16,17,32,17.10
2018,10,16,17,33,17.10
2018,10,16,17,34,17.00
2018,10,16,17,35,17.00
2018,10,16,17,36,16.90
2018,10,16,17,37,16.90
2018,10,16,17,38,16.80
2018,10,16,17,39,16.80
2018,10,16,17,40,16.70
2018,10,16,17,41,16.70